Flag for Dominican Republic Weather past 2 weeks in Puerto Plata, Dominican Republic

Now
77 °F

Partly sunny.


Feels Like: 78 °F
Forecast: 79 / 86 °F
Wind: No wind

Location: Puerto Plata International

Current Time: Aug 22, 2014 at 7:57:21 AM

Latest Report: Aug 22, 2014 at 7:00 AM


Visibility: N/A

Pressure: 29.92 "Hg

Humidity: 94%

Dew point: 75 °F

Location of Puerto PlataLocation

Historic Weather in Puerto Plata — Graph

°F

Puerto Plata temperature yesterday

Maximum temperature yesterday: 91 °F (at 2:00 PM)
Minimum temperature yesterday: 75 °F (at 5:00 AM)
Average temperature yesterday: 85 °F

Past Weeks' High & Low Weather Summary

 TemperatureHumidityPressure
High97 °F (Aug 13, 2:00 PM)100% (Aug 12, 7:00 AM)30.09 "Hg (Aug 12, 7:00 AM)
Low75 °F (Aug 9, 7:00 AM)35% (Aug 11, 4:00 PM)29.92 "Hg (Aug 18, 4:00 PM)
Average86 °F74%30.00 "Hg
* Reported Aug 7 5:00 AM — Aug 22 5:00 AM, Puerto Plata, Weather by CustomWeather, © 2014

Note: Actual official high and low records may vary slightly from our data, if they occured in-between our weather recording intervals... More about our weather records

Advertising

Puerto Plata weather history for previous 24 hours

 ConditionsComfort  
Time TempWeatherWind HumidityBarometerVisibility
5:00 AM
Aug 22
77 °FLight rain. Passing clouds.No wind94%29.95 "Hg5 mi
2:00 AM79 °FPassing clouds.No wind94%29.98 "HgN/A
11:00 PM
Aug 21
79 °FPassing clouds.No wind94%30.04 "HgN/A
8:00 PM82 °FPassing clouds.No wind84%30.01 "HgN/A
7:00 PM84 °FPassing clouds.No wind79%29.98 "HgN/A
6:00 PM86 °FScattered clouds.6 mph75%29.98 "HgN/A
5:00 PM90 °FScattered clouds.14 mph67%29.95 "HgN/A
4:00 PM90 °FScattered clouds.12 mph67%29.98 "HgN/A
3:00 PM90 °FScattered clouds.17 mph67%30.01 "HgN/A
2:00 PM91 °FScattered clouds.17 mph63%30.01 "HgN/A
1:00 PM90 °FScattered clouds.17 mph67%30.01 "HgN/A
12:00 PM90 °FScattered clouds.12 mph67%30.04 "HgN/A
11:00 AM88 °FPartly sunny.17 mph75%30.07 "HgN/A
10:00 AM86 °FScattered clouds.12 mph79%30.04 "HgN/A
9:00 AM84 °FPassing clouds.9 mph79%30.04 "HgN/A
8:00 AM79 °FPassing clouds.No wind94%30.04 "HgN/A
7:00 AM77 °FPassing clouds.No wind94%30.01 "HgN/A
Weather by CustomWeather, © 2014

See weather overviewHow to use our weather pages